Other Surface Observations
Issued by NWS

Home | Current Version | Previous Version | Text Only | Print | Product List | Glossary On
Versions: 1 2 3 4 5 6 7 8 9 10 11 12 13 14 15 16 17 18 19 20 21 22 23 24 25 26 27 28 29 30 31 32 33 34 35 36 37 38 39 40 41 42 43 44 45 46 47 48 49 50
000
SXUS52 KTAE 301006
OSOTAE
OSOTAE
North Florida/South Alabama/Southwest Georgia Weather Roundup
National Weather Service Tallahassee Florida
600 AM EDT TUE AUG 30 2016

Note: "fair" indicates few or no clouds below 12,000 feet with no
significant weather and/or obstructions to visibility.

!FLZ017-115-028-034-025-301100
...North Florida...

CITY           SKY/WX    TMP DP  RH WIND       PRES   REMARKS
TALLAHASSEE    CLEAR     78  74  87 E7        29.95S
APALACHICOLA   PTCLDY    77  77 100 NE8       29.91S
PERRY          CLEAR     75  73  95 NE3       29.96S
CROSS CITY     CLEAR     73  72  94 NE5       29.94S
JACKSONVILLE   PTCLDY    76  74  93 E7        29.97R
$$

!FLZ112-006-005-002-011-301100
...Florida Panhandle...

CITY           SKY/WX    TMP DP  RH WIND       PRES   REMARKS
MARIANNA       CLEAR     73  72  96 CALM      29.95F
BONIFAY        NOT AVBL
PANAMA CITY NW FAIR      76  72  87 NE7       29.93S
TYNDALL AFB    CLEAR     76  73  90 E8        29.93S
TYND DRONE APT FAIR      75  74  94 NE7       29.93S
DE FUNIAK SPR  FAIR      74  71  91 NE6       29.97S
EGLIN AFB      CLEAR     78  71  80 NE8       29.95S
DESTIN         CLEAR     81  74  79 E9        29.94S
HURLBURT       CLEAR     77  71  81 NE7       29.93S
CRESTVIEW      CLEAR     72  70  93 NE3       29.97F
PENSACOLA      CLEAR     79  72  79 E5        29.94S
$$

!ALZ063-066-301100
...South Alabama...

CITY           SKY/WX    TMP DP  RH WIND       PRES   REMARKS
DOTHAN         CLEAR     72  72 100 NE5       30.02R
OZARK CAIRNS   CLEAR     73  71  96 NE5       29.98S
FT RUCKER HELI CLEAR     73  70  90 CALM      29.97S
RUCKER HELI 3  NOT AVBL
RUCKER HELI 2  FAIR      75  71  87 N3        29.98S
FLORALA APT    CLEAR     72  70  93 NE3       29.99S
ANDALUSIA      CLEAR     76  71  85 CALM      29.98R
TROY           CLEAR     73  72  96 NE5       30.00S
EUFALA         FAIR      74  71  91 N3        30.01R
MOBILE         CLEAR     75  71  87 NE7       29.96R
$$

!GAZ120>161-301100
...Southwest and South Central Georgia...

CITY           SKY/WX    TMP DP  RH WIND       PRES   REMARKS
THOMASVILLE    FAIR      73  73 100 CALM      29.99S
BAINBRIDGE     CLEAR     73  72  94 CALM      29.97S
MOODY AFB      PTCLDY    73  71  95 NE5       29.98R
VALDOSTA       CLEAR     73  73 100 NE3       29.98S
MOULTRIE       CLEAR     73  72  94 NE3       30.00R
BLAKELY        CLEAR     73  72  94 CALM      29.99S
ALBANY         CLEAR     75  72  90 NE8       30.01S
TIFTON         CLOUDY    73  73 100 NE5       30.01R
FITZGERALD       N/A     76  76 100 CALM      30.03S
CORDELE        FAIR      75  73  94 NE6       30.03R
AMERICUS       FAIR      70  70 100 NE3       30.05R
HOMERVILLE     FOG       73  73 100 CALM      30.00R VSB 3/4
$$

!GMZ750-755-770-775-301100
...Coastal and Buoy Obs...

STATION/POSITION TIME  TEMP    WIND        PRES    VSBY  WAVE
                       AIR SEA DIR/SP/G                  HT/PER
                 (UTC) (F)     (DEG/KT/KT) (MB)    (MI)  (FT/S)
KEATON BEACH     1000   75      60/  6/  8 1013.4S
CEDAR KEY        0900   77      80/ 12/ 14 1013.3F
C TOWER          1000   82     110/ 17/ 18 1013.1R
APALACHICOLA BUO 0950   83 85  120/ 16/ 19 1011.4S         5/ 6
PANAMA CITY BUOY 0850   83 85   90/ 19/ 21 1011.4          5/ 6
MOBILE BUOY      0900   85 85   70/ 12/ 14 1012.0F
ORANGE BCH AL BU 0950   84 85   90/ 17/ 19 1012.6F         4/ 7
$$




USA.gov is the U.S. government's official web portal to all federal, state and local government web resources and services.